User: anonymous   Login
Location: Elstree
(51.6403°N, 0.2969°W)
Time: 05:03:54
(UTC+00:00)
Language:

Terra - Orbit

View from above orbital plane
View from above orbital plane
View from above satellite
View from above satellite

Ground track
Ground track

The orbit data is extracted from the following two-line orbital elements,

1 25994U 99068A   21125.73981716  .00000054  00000-0  22034-4 0  9998
2 25994  98.1771 200.9418 0001414  99.7770  56.7900 14.57128505137249
Epoch (UTC): 05 May 2021 17:45:20
Eccentricity: 0.0001414
inclination: 98.1771°
perigee height: 701 km
apogee height: 703 km
right ascension of ascending node: 200.9418°
argument of perigee: 99.7770°
revolutions per day: 14.57128505
mean anomaly at epoch: 56.7900°
orbit number at epoch: 13724

The dashed part of the orbit path shows where the satellite is in the earth's shadow,  

DLR